Location: Tel Aviv
(32.0670°N, 34.7670°E)
Time: 10:29:58
(UTC+02:00)

SR - Visible Passes

Search period start: 05 December 2023 00:00
Search period end: 15 December 2023 00:00
Orbit: 571 x 872 km, 66.7° (Epoch: 04 December)

Date Brightness Start Highest point End Pass type
(mag) Time Alt. Az. Time Alt. Az. Time Alt. Az.
09 Dec ? 18:59:47 10° NNW 19:00:43 15° NNW 19:00:43 15° NNW visible
10 Dec ? 18:08:52 10° N 18:11:28 20° NNE 18:11:28 20° NNE visible
10 Dec ? 19:50:25 10° NW 19:50:49 12° NW 19:50:49 12° NW visible
11 Dec ? 17:19:01 10° NNE 17:21:23 13° NE 17:22:33 12° ENE visible
11 Dec ? 18:58:31 10° NNW 19:01:56 38° NNW 19:01:56 38° NNW visible
12 Dec ? 18:07:10 10° NNW 18:12:32 43° ENE 18:13:37 38° E visible
12 Dec ? 19:50:07 10° WNW 19:53:03 19° W 19:53:03 19° W visible
13 Dec ? 17:16:23 10° N 17:20:37 21° NE 17:24:37 10° ESE visible
13 Dec ? 18:57:32 10° NW 19:02:50 46° WSW 19:06:11 20° S visible
14 Dec ? 18:05:45 10° NNW 18:11:24 78° ENE 18:16:33 10° SSE visible
